CFG7AM EDDM-GCRR

Flight info

Callsign CFG7AM
Flight time 4h 43m
Altitude 35000
Route N0449F350 ALG Y109 UMTEX Y100 TRA DCT LUTIX DCT BENOT DCT NEMOS DCT NINTU DCT MEBAK DCT REPSI DCT LERGA DCT MINSO DCT NARAK DCT AGN DCT MAQAB DCT TIVLI N0456F370 DCT ELSAP DCT ZAR DCT KONKE DCT TERSA DCT CJN DCT VTB DCT INPAN DCT CRISA DCT HIJ DCT SVL DCT CLANA DCT KORNO UN857 TERTO TERT1P
Aircraft A320/M-SDFGHIJ1RWY/LB1

Departure

Time 2026-05-05 12:05
Airport Munich Airport (EDDM)

Arrival

Time 2026-05-05 16:48
Airport César Manrique-Lanzarote Airport (GCRR)
Time Latitude Longitude Altitude Speed Heading
2026-05-05 09:57 48.35131 11.78342 1486 ft 0 kts 83°
2026-05-05 11:55 48.35129 11.78323 1472 ft 3 kts 83°
2026-05-05 11:55 48.35127 11.78293 1472 ft 3 kts 83°
2026-05-05 11:55 48.35125 11.78263 1473 ft 3 kts 83°
2026-05-05 11:55 48.35124 11.78235 1476 ft 3 kts 107°
2026-05-05 11:56 48.35133 11.78210 1471 ft 3 kts 142°
2026-05-05 11:56 48.35149 11.78196 1473 ft 2 kts 169°
2026-05-05 11:56 48.35160 11.78194 1472 ft 2 kts 173°
2026-05-05 11:56 48.35164 11.78193 1473 ft 0 kts 173°
2026-05-05 11:58 48.35155 11.78195 1474 ft 6 kts 173°
2026-05-05 11:59 48.35072 11.78209 1483 ft 17 kts 173°
2026-05-05 11:59 48.34949 11.78229 1483 ft 18 kts 174°
2026-05-05 11:59 48.34880 11.78117 1476 ft 17 kts 263°
2026-05-05 11:59 48.34797 11.78041 1485 ft 16 kts 176°
2026-05-05 12:00 48.34697 11.78067 1484 ft 12 kts 152°
2026-05-05 12:00 48.34683 11.78171 1478 ft 9 kts 83°
2026-05-05 12:00 48.34693 11.78281 1485 ft 15 kts 83°
2026-05-05 12:00 48.34705 11.78446 1485 ft 16 kts 84°
2026-05-05 12:01 48.34717 11.78607 1485 ft 15 kts 83°
2026-05-05 12:01 48.34729 11.78756 1481 ft 13 kts 83°
2026-05-05 12:01 48.34740 11.78893 1480 ft 15 kts 83°
2026-05-05 12:01 48.34756 11.79088 1481 ft 20 kts 83°
2026-05-05 12:02 48.34770 11.79278 1479 ft 17 kts 84°
2026-05-05 12:02 48.34782 11.79446 1485 ft 16 kts 83°
2026-05-05 12:02 48.34795 11.79606 1485 ft 15 kts 83°
2026-05-05 12:02 48.34809 11.79783 1482 ft 20 kts 83°
2026-05-05 12:03 48.34826 11.80007 1472 ft 22 kts 84°
2026-05-05 12:03 48.34801 11.80187 1481 ft 16 kts 126°
2026-05-05 12:03 48.34719 11.80243 1481 ft 14 kts 170°
2026-05-05 12:03 48.34593 11.80265 1479 ft 20 kts 172°
2026-05-05 12:04 48.34481 11.80259 1483 ft 12 kts 198°
2026-05-05 12:04 48.34458 11.80161 1485 ft 12 kts 264°
2026-05-05 12:04 48.34426 11.79736 1484 ft 77 kts 263°
2026-05-05 12:04 48.34338 11.78605 1485 ft 138 kts 263°
2026-05-05 12:05 48.34214 11.76935 1628 ft 172 kts 264°
2026-05-05 12:05 48.34086 11.75177 2328 ft 171 kts 264°
2026-05-05 12:05 48.33950 11.73401 3042 ft 171 kts 261°
2026-05-05 12:05 48.33486 11.71754 3432 ft 180 kts 225°
2026-05-05 12:06 48.32331 11.70868 3592 ft 200 kts 185°
2026-05-05 12:06 48.30863 11.70791 3798 ft 221 kts 181°
2026-05-05 12:06 48.29296 11.70871 4303 ft 228 kts 168°
2026-05-05 12:06 48.27795 11.71718 4825 ft 241 kts 147°
2026-05-05 12:07 48.26345 11.73204 5133 ft 264 kts 145°
2026-05-05 12:07 48.24824 11.74772 5734 ft 273 kts 146°
2026-05-05 12:07 48.23246 11.76385 6517 ft 276 kts 147°
2026-05-05 12:07 48.21650 11.78006 7284 ft 278 kts 146°
2026-05-05 12:08 48.20036 11.79637 8046 ft 281 kts 146°
2026-05-05 12:08 48.18394 11.81261 8852 ft 284 kts 151°
2026-05-05 12:08 48.16575 11.82406 9643 ft 286 kts 162°
2026-05-05 12:08 48.14660 11.83350 10144 ft 298 kts 162°
2026-05-05 12:09 48.12641 11.84346 10306 ft 321 kts 162°
2026-05-05 12:09 48.10460 11.85424 10570 ft 337 kts 162°
2026-05-05 12:09 48.08216 11.86537 11141 ft 342 kts 162°
2026-05-05 12:09 48.05945 11.87665 11800 ft 345 kts 162°
2026-05-05 12:10 48.03653 11.88800 12444 ft 348 kts 163°
2026-05-05 12:10 48.01344 11.89944 13090 ft 351 kts 163°
2026-05-05 12:10 47.99015 11.91103 13713 ft 354 kts 163°
2026-05-05 12:10 47.96667 11.92270 14304 ft 356 kts 163°
2026-05-05 12:11 47.94308 11.93438 14874 ft 358 kts 163°
2026-05-05 12:11 47.91944 11.94463 15448 ft 359 kts 170°
2026-05-05 12:11 47.89460 11.94844 16025 ft 360 kts 181°
2026-05-05 12:11 47.86953 11.94792 16613 ft 361 kts 181°
2026-05-05 12:12 47.84437 11.94740 17187 ft 363 kts 181°
2026-05-05 12:12 47.81900 11.94694 17757 ft 365 kts 181°
2026-05-05 12:12 47.79356 11.94648 18282 ft 367 kts 181°
2026-05-05 12:12 47.76829 11.94601 18671 ft 369 kts 181°
2026-05-05 12:13 47.74261 11.94555 18778 ft 369 kts 181°
2026-05-05 12:13 47.71698 11.94510 18798 ft 369 kts 181°
2026-05-05 12:13 47.69121 11.94464 19167 ft 371 kts 181°
2026-05-05 12:13 47.66528 11.94419 19622 ft 374 kts 181°
2026-05-05 12:14 47.63917 11.94372 20079 ft 377 kts 181°
2026-05-05 12:14 47.61284 11.94325 20532 ft 380 kts 181°
2026-05-05 12:14 47.58636 11.94278 20914 ft 383 kts 181°
2026-05-05 12:14 47.55971 11.94231 21389 ft 384 kts 181°
2026-05-05 12:15 47.53326 11.94187 21864 ft 386 kts 181°
2026-05-05 12:15 47.50634 11.94142 22373 ft 388 kts 182°
2026-05-05 12:15 47.47924 11.94094 22807 ft 391 kts 182°
2026-05-05 12:15 47.45200 11.94044 23231 ft 393 kts 182°
2026-05-05 12:16 47.42464 11.93879 23584 ft 394 kts 187°
2026-05-05 12:16 47.39736 11.93341 23930 ft 396 kts 188°
2026-05-05 12:16 47.37001 11.92789 24221 ft 398 kts 188°
2026-05-05 12:16 47.34250 11.92233 24525 ft 400 kts 188°
2026-05-05 12:17 47.31488 11.91677 24865 ft 401 kts 188°
2026-05-05 12:17 47.28749 11.91129 25178 ft 403 kts 188°
2026-05-05 12:17 47.25961 11.90575 25510 ft 405 kts 188°
2026-05-05 12:17 47.23166 11.90023 25840 ft 406 kts 188°
2026-05-05 12:18 47.20359 11.89472 26113 ft 408 kts 188°
2026-05-05 12:18 47.17540 11.88916 26425 ft 410 kts 188°
2026-05-05 12:18 47.14707 11.88357 26727 ft 411 kts 188°
2026-05-05 12:18 47.11903 11.87801 27005 ft 413 kts 188°
2026-05-05 12:19 47.09057 11.87233 27305 ft 413 kts 188°
2026-05-05 12:19 47.06207 11.86665 27622 ft 414 kts 188°
2026-05-05 12:19 47.03338 11.86216 27900 ft 416 kts 182°
2026-05-05 12:19 47.00437 11.86432 28175 ft 419 kts 173°
2026-05-05 12:20 46.97577 11.87342 28421 ft 423 kts 167°
2026-05-05 12:20 46.94721 11.88457 28664 ft 425 kts 167°
2026-05-05 12:20 46.91851 11.89568 28881 ft 428 kts 167°
2026-05-05 12:20 46.88969 11.90674 29128 ft 429 kts 167°
2026-05-05 12:21 46.86071 11.91780 29328 ft 431 kts 167°
2026-05-05 12:21 46.83202 11.92875 29578 ft 433 kts 167°
2026-05-05 12:21 46.80287 11.93989 29806 ft 434 kts 167°
2026-05-05 12:21 46.77361 11.95111 30012 ft 435 kts 167°
2026-05-05 12:22 46.74430 11.96239 30216 ft 435 kts 167°
2026-05-05 12:22 46.71503 11.97369 30455 ft 435 kts 167°
2026-05-05 12:22 46.68577 11.98494 30696 ft 435 kts 168°
2026-05-05 12:22 46.65649 11.99618 30936 ft 435 kts 167°
2026-05-05 12:23 46.62724 12.00738 31121 ft 435 kts 168°
2026-05-05 12:23 46.59796 12.01856 31350 ft 435 kts 168°
2026-05-05 12:23 46.56909 12.02956 31546 ft 435 kts 168°
2026-05-05 12:23 46.53979 12.04071 31733 ft 435 kts 168°
2026-05-05 12:24 46.51046 12.05186 31950 ft 435 kts 168°
2026-05-05 12:24 46.48120 12.06299 32140 ft 435 kts 168°
2026-05-05 12:24 46.45186 12.07411 32351 ft 436 kts 168°
2026-05-05 12:24 46.42251 12.08521 32573 ft 436 kts 169°
2026-05-05 12:25 46.39320 12.09630 32768 ft 436 kts 169°
2026-05-05 12:25 46.36381 12.10741 32959 ft 436 kts 169°
2026-05-05 12:25 46.33486 12.11836 33152 ft 437 kts 169°
2026-05-05 12:25 46.30543 12.12947 33355 ft 437 kts 169°
2026-05-05 12:26 46.27598 12.14059 33553 ft 438 kts 169°
2026-05-05 12:26 46.24652 12.15170 33738 ft 439 kts 169°
2026-05-05 12:26 46.21692 12.16281 33944 ft 440 kts 169°
2026-05-05 12:26 46.18725 12.17393 34131 ft 441 kts 169°
2026-05-05 12:27 46.15761 12.18510 34310 ft 441 kts 169°
2026-05-05 12:27 46.12794 12.19630 34461 ft 441 kts 169°
2026-05-05 12:27 46.09818 12.20750 34632 ft 442 kts 169°
2026-05-05 12:27 46.06880 12.21851 34776 ft 442 kts 170°
2026-05-05 12:28 46.03902 12.22964 34945 ft 442 kts 170°
2026-05-05 12:28 46.00922 12.24076 35030 ft 442 kts 170°
2026-05-05 12:28 45.94934 12.25204 35045 ft 429 kts 191°
2026-05-05 12:29 45.92043 12.24357 35029 ft 422 kts 203°
2026-05-05 12:29 45.89395 12.22632 35032 ft 416 kts 215°
2026-05-05 12:29 45.87131 12.20191 35029 ft 411 kts 227°
2026-05-05 12:29 45.85275 12.17106 35031 ft 408 kts 238°
2026-05-05 12:30 45.82278 12.10207 35030 ft 408 kts 239°
2026-05-05 12:30 45.79282 12.03301 35030 ft 408 kts 239°
2026-05-05 12:31 45.76285 11.96405 35036 ft 408 kts 239°
2026-05-05 12:31 45.73308 11.89565 35042 ft 407 kts 239°
2026-05-05 12:32 45.70313 11.82692 35045 ft 407 kts 239°
2026-05-05 12:32 45.67380 11.75973 35041 ft 406 kts 239°
2026-05-05 12:33 45.64379 11.69137 35043 ft 406 kts 239°
2026-05-05 12:33 45.61894 11.61991 35041 ft 404 kts 246°
2026-05-05 12:34 45.59518 11.54715 35037 ft 404 kts 245°
2026-05-05 12:34 45.57130 11.47459 35033 ft 404 kts 245°
2026-05-05 12:35 45.54743 11.40215 35029 ft 403 kts 245°
2026-05-05 12:35 45.52358 11.32973 35021 ft 403 kts 245°
2026-05-05 12:36 45.49990 11.25793 35019 ft 403 kts 245°
2026-05-05 12:36 45.47597 11.18566 35015 ft 403 kts 245°
2026-05-05 12:37 45.45201 11.11367 35013 ft 402 kts 245°
2026-05-05 12:37 45.42819 11.04230 35009 ft 402 kts 245°
2026-05-05 12:38 45.40421 10.97054 35011 ft 401 kts 245°
2026-05-05 12:38 45.38020 10.89881 35012 ft 401 kts 244°
2026-05-05 12:39 45.35618 10.82734 35014 ft 400 kts 244°
2026-05-05 12:39 45.33213 10.75603 35014 ft 400 kts 244°
2026-05-05 12:40 45.30827 10.68526 35015 ft 400 kts 244°
2026-05-05 12:40 45.28417 10.61408 35007 ft 399 kts 244°
2026-05-05 12:41 45.26003 10.54315 35004 ft 399 kts 244°
2026-05-05 12:41 45.23588 10.47224 35005 ft 399 kts 244°
2026-05-05 12:42 45.21188 10.40177 35005 ft 399 kts 244°
2026-05-05 12:42 45.18763 10.33091 35003 ft 399 kts 243°
2026-05-05 12:43 45.16335 10.26018 35002 ft 399 kts 243°
2026-05-05 12:43 45.13902 10.18946 35001 ft 399 kts 243°
2026-05-05 12:44 45.11480 10.11928 35000 ft 399 kts 243°
2026-05-05 12:44 45.09033 10.04869 34994 ft 399 kts 243°
2026-05-05 12:45 45.06998 9.99007 34993 ft 399 kts 243°
2026-05-05 12:45 45.04137 9.90774 34991 ft 399 kts 243°
2026-05-05 12:46 45.01708 9.83772 34991 ft 399 kts 243°
2026-05-05 12:46 44.99664 9.77928 34992 ft 399 kts 242°
2026-05-05 12:47 44.97199 9.70905 34991 ft 399 kts 242°
2026-05-05 12:47 44.94331 9.62752 34990 ft 399 kts 242°
2026-05-05 12:48 44.91863 9.55745 34990 ft 399 kts 242°
2026-05-05 12:48 44.89806 9.49923 34988 ft 399 kts 242°
2026-05-05 12:49 44.87330 9.42919 34986 ft 399 kts 242°
2026-05-05 12:49 44.84847 9.35925 34983 ft 399 kts 242°
2026-05-05 12:50 44.81959 9.27810 34985 ft 399 kts 242°
2026-05-05 12:50 44.79884 9.22006 34987 ft 399 kts 242°
2026-05-05 12:51 44.77393 9.15031 34989 ft 399 kts 242°
2026-05-05 12:51 44.74899 9.08069 34995 ft 398 kts 242°
2026-05-05 12:52 44.72639 9.01796 34996 ft 398 kts 242°
2026-05-05 12:52 44.70146 8.94863 34998 ft 397 kts 242°
2026-05-05 12:53 44.67660 8.87992 34996 ft 397 kts 242°
2026-05-05 12:53 44.65157 8.81088 34999 ft 396 kts 242°
2026-05-05 12:54 44.61408 8.70765 34999 ft 395 kts 242°
2026-05-05 12:55 44.58906 8.63900 34998 ft 395 kts 242°
2026-05-05 12:55 44.56416 8.57098 34995 ft 395 kts 242°
2026-05-05 12:56 44.53908 8.50250 35000 ft 394 kts 242°
2026-05-05 12:56 44.51407 8.43418 34997 ft 394 kts 242°
2026-05-05 12:57 44.48899 8.36602 34999 ft 393 kts 241°
2026-05-05 12:57 44.46383 8.29802 34991 ft 393 kts 241°
2026-05-05 12:58 44.43887 8.23060 34986 ft 393 kts 241°
2026-05-05 12:58 44.41370 8.16268 34979 ft 393 kts 241°
2026-05-05 12:59 44.38849 8.09478 34962 ft 394 kts 241°
2026-05-05 12:59 44.36339 8.02732 34961 ft 394 kts 241°
2026-05-05 13:00 44.32531 7.92550 34963 ft 395 kts 241°
2026-05-05 13:01 44.27440 7.79024 34968 ft 395 kts 241°
2026-05-05 13:01 44.24808 7.72301 34971 ft 395 kts 239°
2026-05-05 13:02 44.22067 7.65658 34974 ft 395 kts 239°
2026-05-05 13:02 44.19320 7.59021 34977 ft 396 kts 239°
2026-05-05 13:03 44.16609 7.52425 34969 ft 394 kts 239°
2026-05-05 13:03 44.13882 7.45786 34978 ft 395 kts 239°
2026-05-05 13:04 44.11160 7.39174 34983 ft 394 kts 239°
2026-05-05 13:04 44.08438 7.32566 34981 ft 393 kts 239°
2026-05-05 13:05 44.05742 7.26035 34993 ft 392 kts 239°
2026-05-05 13:05 44.03037 7.19512 34990 ft 391 kts 239°
2026-05-05 13:06 44.00647 7.13741 35001 ft 390 kts 239°
2026-05-05 13:06 43.97928 7.07238 34991 ft 389 kts 239°
2026-05-05 13:07 43.95218 7.00759 34986 ft 388 kts 239°
2026-05-05 13:07 43.92534 6.94349 34987 ft 386 kts 239°
2026-05-05 13:08 43.89832 6.87914 34981 ft 386 kts 238°
2026-05-05 13:08 43.87138 6.81492 34978 ft 385 kts 238°
2026-05-05 13:09 43.84461 6.75125 34980 ft 385 kts 238°
2026-05-05 13:09 43.81765 6.68732 34973 ft 384 kts 238°
2026-05-05 13:10 43.79066 6.62361 34970 ft 383 kts 238°
2026-05-05 13:10 43.76363 6.55995 34969 ft 383 kts 238°
2026-05-05 13:11 43.73681 6.49692 34967 ft 383 kts 238°
2026-05-05 13:11 43.70984 6.43357 34959 ft 382 kts 238°
2026-05-05 13:12 43.68285 6.37034 34963 ft 382 kts 238°
2026-05-05 13:12 43.65583 6.30719 34964 ft 381 kts 238°
2026-05-05 13:13 43.62904 6.24461 34959 ft 381 kts 238°
2026-05-05 13:13 43.60201 6.18176 34957 ft 381 kts 238°
2026-05-05 13:14 43.57496 6.11908 34955 ft 380 kts 238°
2026-05-05 13:14 43.54793 6.05643 34956 ft 380 kts 238°
2026-05-05 13:15 43.52091 5.99393 34951 ft 379 kts 238°
2026-05-05 13:15 43.49415 5.93192 34945 ft 379 kts 238°
2026-05-05 13:16 43.46712 5.86967 34946 ft 379 kts 238°
2026-05-05 13:16 43.44001 5.80757 34951 ft 378 kts 238°
2026-05-05 13:17 43.41295 5.74559 34953 ft 378 kts 238°
2026-05-05 13:17 43.38588 5.68365 34954 ft 378 kts 238°
2026-05-05 13:18 43.35894 5.62226 34962 ft 377 kts 238°
2026-05-05 13:18 43.33190 5.56056 34961 ft 377 kts 238°
2026-05-05 13:19 43.30488 5.49900 34960 ft 376 kts 238°
2026-05-05 13:19 43.27784 5.43760 34958 ft 376 kts 238°
2026-05-05 13:20 43.25089 5.37677 34962 ft 375 kts 237°
2026-05-05 13:20 43.22244 5.31687 34960 ft 374 kts 232°
2026-05-05 13:21 43.19055 5.26050 34959 ft 374 kts 232°
2026-05-05 13:21 43.15865 5.20422 34958 ft 374 kts 232°
2026-05-05 13:22 43.12702 5.14844 34955 ft 373 kts 232°
2026-05-05 13:22 43.09511 5.09240 34956 ft 373 kts 232°
2026-05-05 13:23 43.06327 5.03653 34957 ft 372 kts 232°
2026-05-05 13:23 43.03162 4.98117 34950 ft 372 kts 232°
2026-05-05 13:24 42.99975 4.92558 34951 ft 371 kts 232°
2026-05-05 13:24 42.96795 4.87001 34947 ft 371 kts 232°
2026-05-05 13:25 42.93617 4.81452 34945 ft 371 kts 232°
2026-05-05 13:25 42.90453 4.75954 34948 ft 371 kts 232°
2026-05-05 13:26 42.87266 4.70436 34951 ft 370 kts 232°
2026-05-05 13:26 42.84081 4.64921 34949 ft 370 kts 232°
2026-05-05 13:27 42.80891 4.59417 34952 ft 370 kts 232°
2026-05-05 13:27 42.77725 4.53959 34951 ft 370 kts 232°
2026-05-05 13:28 42.74540 4.48471 34950 ft 369 kts 232°
2026-05-05 13:28 42.71353 4.42989 34954 ft 369 kts 231°
2026-05-05 13:29 42.68169 4.37523 34950 ft 369 kts 231°
2026-05-05 13:29 42.65004 4.32099 34948 ft 369 kts 231°
2026-05-05 13:30 42.61813 4.26650 34949 ft 369 kts 231°
2026-05-05 13:30 42.58619 4.21210 34952 ft 368 kts 231°
2026-05-05 13:31 42.55432 4.15782 34953 ft 368 kts 231°
2026-05-05 13:31 42.52244 4.10365 34951 ft 368 kts 231°
2026-05-05 13:32 42.49077 4.04992 34951 ft 367 kts 231°
2026-05-05 13:32 42.45892 3.99594 34945 ft 366 kts 231°
2026-05-05 13:33 42.42707 3.94211 34945 ft 366 kts 231°
2026-05-05 13:33 42.39526 3.88840 34940 ft 365 kts 231°
2026-05-05 13:34 42.36367 3.83516 34937 ft 365 kts 231°
2026-05-05 13:34 42.33183 3.78171 34941 ft 365 kts 231°
2026-05-05 13:35 42.30005 3.72839 34935 ft 364 kts 231°
2026-05-05 13:35 42.26827 3.67509 34932 ft 364 kts 231°
2026-05-05 13:36 42.23669 3.62225 34929 ft 364 kts 231°
2026-05-05 13:36 42.20485 3.56905 34928 ft 364 kts 231°
2026-05-05 13:37 42.17297 3.51593 34926 ft 365 kts 231°
2026-05-05 13:37 42.14102 3.46278 34925 ft 365 kts 231°
2026-05-05 13:38 42.10918 3.40997 34929 ft 366 kts 231°
2026-05-05 13:38 42.07710 3.35684 34928 ft 366 kts 231°
2026-05-05 13:39 42.04500 3.30375 34927 ft 366 kts 231°
2026-05-05 13:39 42.01285 3.25060 34925 ft 366 kts 231°
2026-05-05 13:40 41.98092 3.19788 34920 ft 366 kts 231°
2026-05-05 13:40 41.94874 3.14486 34918 ft 366 kts 231°
2026-05-05 13:41 41.91652 3.09193 34914 ft 366 kts 231°
2026-05-05 13:41 41.88425 3.03914 34914 ft 366 kts 231°
2026-05-05 13:42 41.85203 2.98638 34913 ft 365 kts 231°
2026-05-05 13:42 41.82003 2.93408 34914 ft 365 kts 231°
2026-05-05 13:43 41.78779 2.88156 34914 ft 365 kts 231°
2026-05-05 13:43 41.75562 2.82915 34914 ft 364 kts 231°
2026-05-05 13:44 41.72343 2.77670 34911 ft 364 kts 231°
2026-05-05 13:44 41.69136 2.72472 34909 ft 364 kts 231°
2026-05-05 13:45 41.65909 2.67239 34910 ft 365 kts 231°
2026-05-05 13:45 41.62679 2.62010 34909 ft 365 kts 231°
2026-05-05 13:46 41.59464 2.56819 34911 ft 365 kts 231°
2026-05-05 13:46 41.56224 2.51599 34908 ft 365 kts 231°
2026-05-05 13:47 41.52979 2.46379 34915 ft 365 kts 231°
2026-05-05 13:47 41.49727 2.41162 34915 ft 365 kts 231°
2026-05-05 13:48 41.46505 2.35989 34914 ft 365 kts 231°
2026-05-05 13:48 41.43266 2.30792 34913 ft 365 kts 231°
2026-05-05 13:49 41.40015 2.25604 34913 ft 365 kts 231°
2026-05-05 13:49 41.36759 2.20415 34942 ft 365 kts 231°
2026-05-05 13:50 41.33530 2.15269 34946 ft 365 kts 231°
2026-05-05 13:50 41.30266 2.10091 34947 ft 365 kts 230°
2026-05-05 13:51 41.26908 2.05038 34944 ft 365 kts 229°
2026-05-05 13:51 41.23494 2.00044 34941 ft 365 kts 229°
2026-05-05 13:52 41.20114 1.95086 34936 ft 364 kts 229°
2026-05-05 13:52 41.16725 1.90084 34933 ft 364 kts 229°
2026-05-05 13:53 41.13334 1.85085 34926 ft 364 kts 229°
2026-05-05 13:53 41.09967 1.80131 34924 ft 364 kts 229°
2026-05-05 13:54 41.06575 1.75147 34915 ft 364 kts 229°
2026-05-05 13:54 41.03182 1.70168 34913 ft 364 kts 229°
2026-05-05 13:55 40.99788 1.65196 34916 ft 364 kts 229°
2026-05-05 13:55 40.96413 1.60261 34914 ft 364 kts 229°
2026-05-05 13:56 40.93010 1.55296 34913 ft 364 kts 229°
2026-05-05 13:56 40.89603 1.50338 34916 ft 364 kts 229°
2026-05-05 13:57 40.86194 1.45381 34913 ft 365 kts 229°
2026-05-05 13:57 40.82783 1.40425 34910 ft 365 kts 229°
2026-05-05 13:58 40.79385 1.35510 34908 ft 365 kts 229°
2026-05-05 13:58 40.75963 1.30565 34910 ft 365 kts 229°
2026-05-05 13:59 40.70834 1.23151 34914 ft 365 kts 229°
2026-05-05 14:00 40.65722 1.15781 34913 ft 365 kts 229°
2026-05-05 14:00 40.62300 1.10854 34916 ft 365 kts 229°
2026-05-05 14:01 40.58871 1.05929 34920 ft 365 kts 229°
2026-05-05 14:01 40.55463 1.01041 34917 ft 365 kts 229°
2026-05-05 14:02 40.52030 0.96128 34923 ft 365 kts 229°
2026-05-05 14:02 40.48598 0.91222 34926 ft 365 kts 229°
2026-05-05 14:03 40.45160 0.86320 34924 ft 365 kts 229°
2026-05-05 14:03 40.41717 0.81425 34925 ft 365 kts 229°
2026-05-05 14:04 40.38300 0.76571 34918 ft 365 kts 229°
2026-05-05 14:04 40.34862 0.71679 34914 ft 365 kts 229°
2026-05-05 14:05 40.31413 0.66794 34910 ft 365 kts 229°
2026-05-05 14:05 40.27962 0.61906 34908 ft 365 kts 229°
2026-05-05 14:06 40.24508 0.57023 34906 ft 366 kts 229°
2026-05-05 14:06 40.21043 0.52153 34907 ft 366 kts 229°
2026-05-05 14:07 40.17599 0.47313 34911 ft 366 kts 229°
2026-05-05 14:07 40.14138 0.42446 34910 ft 365 kts 229°
2026-05-05 14:08 40.10669 0.37586 34916 ft 366 kts 229°
2026-05-05 14:08 40.07203 0.32718 34920 ft 366 kts 229°
2026-05-05 14:09 40.03755 0.27886 34921 ft 366 kts 229°
2026-05-05 14:09 40.00278 0.23033 34917 ft 366 kts 229°
2026-05-05 14:10 39.96798 0.18185 34914 ft 366 kts 229°
2026-05-05 14:10 39.93322 0.13338 34912 ft 366 kts 229°
2026-05-05 14:11 39.89836 0.08499 34903 ft 366 kts 229°
2026-05-05 14:11 39.86378 0.03696 34903 ft 366 kts 229°
2026-05-05 14:12 39.82891 -0.01142 34898 ft 367 kts 229°
2026-05-05 14:12 39.79398 -0.05983 34893 ft 367 kts 229°
2026-05-05 14:13 39.75894 -0.10815 34893 ft 367 kts 229°
2026-05-05 14:13 39.72390 -0.15637 34886 ft 367 kts 229°
2026-05-05 14:14 39.68912 -0.20434 34881 ft 368 kts 229°
2026-05-05 14:14 39.65401 -0.25266 34883 ft 368 kts 229°
2026-05-05 14:15 39.61885 -0.30079 34882 ft 367 kts 229°
2026-05-05 14:15 39.58369 -0.34893 34876 ft 368 kts 229°
2026-05-05 14:16 39.54882 -0.39672 34878 ft 367 kts 229°
2026-05-05 14:16 39.51370 -0.44479 34877 ft 367 kts 229°
2026-05-05 14:17 39.47937 -0.49370 34881 ft 366 kts 235°
2026-05-05 14:17 39.44861 -0.54621 34888 ft 366 kts 235°
2026-05-05 14:18 39.41806 -0.59838 34884 ft 366 kts 234°
2026-05-05 14:18 39.38727 -0.65083 34883 ft 366 kts 234°
2026-05-05 14:19 39.35644 -0.70325 34878 ft 367 kts 235°
2026-05-05 14:19 39.32555 -0.75574 34872 ft 367 kts 235°
2026-05-05 14:20 39.29486 -0.80788 34877 ft 368 kts 235°
2026-05-05 14:20 39.26384 -0.86036 34881 ft 368 kts 234°
2026-05-05 14:21 39.23275 -0.91281 34881 ft 368 kts 235°
2026-05-05 14:21 39.20168 -0.96531 34886 ft 368 kts 234°
2026-05-05 14:22 39.17072 -1.01744 34884 ft 369 kts 234°
2026-05-05 14:22 39.13952 -1.06992 34888 ft 369 kts 234°
2026-05-05 14:23 39.10825 -1.12241 34889 ft 370 kts 235°
2026-05-05 14:23 39.07695 -1.17495 34893 ft 370 kts 235°
2026-05-05 14:24 39.04583 -1.22708 34895 ft 370 kts 234°
2026-05-05 14:24 39.01434 -1.27964 34900 ft 371 kts 234°
2026-05-05 14:25 38.98281 -1.33213 34904 ft 371 kts 234°
2026-05-05 14:25 38.95128 -1.38466 34909 ft 371 kts 235°
2026-05-05 14:26 38.91968 -1.43721 34918 ft 372 kts 235°
2026-05-05 14:26 38.88828 -1.48937 34930 ft 372 kts 235°
2026-05-05 14:27 38.85662 -1.54181 34938 ft 372 kts 235°
2026-05-05 14:27 38.82494 -1.59424 34946 ft 372 kts 235°
2026-05-05 14:28 38.79323 -1.64665 34948 ft 372 kts 235°
2026-05-05 14:28 38.76169 -1.69869 34952 ft 372 kts 235°
2026-05-05 14:29 38.72986 -1.75106 34947 ft 372 kts 235°
2026-05-05 14:29 38.69805 -1.80335 34946 ft 373 kts 235°
2026-05-05 14:30 38.66618 -1.85571 34940 ft 373 kts 235°
2026-05-05 14:30 38.63452 -1.90764 34939 ft 373 kts 235°
2026-05-05 14:31 38.60255 -1.95991 34936 ft 373 kts 235°
2026-05-05 14:31 38.57059 -2.01207 34933 ft 372 kts 235°
2026-05-05 14:32 38.53862 -2.06422 34935 ft 373 kts 235°
2026-05-05 14:32 38.50684 -2.11596 34941 ft 373 kts 235°
2026-05-05 14:33 38.47472 -2.16798 34943 ft 373 kts 235°
2026-05-05 14:33 38.44269 -2.22001 34940 ft 373 kts 235°
2026-05-05 14:34 38.41065 -2.27208 34944 ft 373 kts 235°
2026-05-05 14:34 38.37872 -2.32369 34945 ft 373 kts 235°
2026-05-05 14:35 38.34489 -2.37408 34944 ft 376 kts 231°
2026-05-05 14:35 38.30895 -2.42247 34944 ft 376 kts 231°
2026-05-05 14:36 38.27297 -2.47083 34938 ft 376 kts 231°
2026-05-05 14:36 38.23708 -2.51885 34943 ft 377 kts 231°
2026-05-05 14:37 38.20094 -2.56714 34945 ft 377 kts 231°
2026-05-05 14:37 38.16484 -2.61541 34946 ft 377 kts 231°
2026-05-05 14:38 38.12870 -2.66370 34940 ft 377 kts 231°
2026-05-05 14:38 38.09271 -2.71169 34945 ft 378 kts 231°
2026-05-05 14:39 38.05636 -2.75992 34944 ft 378 kts 231°
2026-05-05 14:39 38.01997 -2.80822 34943 ft 378 kts 231°
2026-05-05 14:40 37.98364 -2.85649 34942 ft 379 kts 231°
2026-05-05 14:40 37.94749 -2.90442 34947 ft 379 kts 230°
2026-05-05 14:41 37.91095 -2.95273 34955 ft 380 kts 231°
2026-05-05 14:41 37.87437 -3.00103 34952 ft 380 kts 230°
2026-05-05 14:42 37.83769 -3.04933 34950 ft 380 kts 230°
2026-05-05 14:42 37.80104 -3.09761 34948 ft 380 kts 230°
2026-05-05 14:43 37.76459 -3.14549 34943 ft 380 kts 230°
2026-05-05 14:43 37.72786 -3.19361 34939 ft 381 kts 230°
2026-05-05 14:44 37.69112 -3.24177 34940 ft 381 kts 230°
2026-05-05 14:44 37.65429 -3.29000 34939 ft 382 kts 230°
2026-05-05 14:45 37.61765 -3.33790 34940 ft 382 kts 230°
2026-05-05 14:45 37.58074 -3.38612 34944 ft 382 kts 230°
2026-05-05 14:46 37.54370 -3.43437 34945 ft 383 kts 230°
2026-05-05 14:46 37.50656 -3.48258 34949 ft 384 kts 230°
2026-05-05 14:47 37.46964 -3.53050 34955 ft 384 kts 230°
2026-05-05 14:47 37.43243 -3.57870 34952 ft 384 kts 230°
2026-05-05 14:48 37.39543 -3.62702 34952 ft 382 kts 234°
2026-05-05 14:48 37.36530 -3.68153 34958 ft 379 kts 239°
2026-05-05 14:49 37.33626 -3.73635 34955 ft 379 kts 239°
2026-05-05 14:49 37.30693 -3.79141 34958 ft 379 kts 239°
2026-05-05 14:50 37.27764 -3.84641 34959 ft 379 kts 239°
2026-05-05 14:50 37.24833 -3.90148 34956 ft 379 kts 239°
2026-05-05 14:51 37.21916 -3.95614 34958 ft 380 kts 239°
2026-05-05 14:51 37.18973 -4.01116 34961 ft 380 kts 239°
2026-05-05 14:52 37.16028 -4.06612 34955 ft 380 kts 238°
2026-05-05 14:52 37.13077 -4.12106 34958 ft 380 kts 239°
2026-05-05 14:53 37.10124 -4.17598 34955 ft 380 kts 238°
2026-05-05 14:53 37.07185 -4.23054 34955 ft 380 kts 238°
2026-05-05 14:54 37.04225 -4.28547 34950 ft 380 kts 238°
2026-05-05 14:54 37.01762 -4.33103 34945 ft 380 kts 238°
2026-05-05 14:55 36.98288 -4.39513 34946 ft 381 kts 238°
2026-05-05 14:55 36.95337 -4.44959 34943 ft 381 kts 238°
2026-05-05 14:56 36.92361 -4.50448 34942 ft 381 kts 238°
2026-05-05 14:56 36.89380 -4.55934 34942 ft 381 kts 238°
2026-05-05 14:57 36.86391 -4.61409 34947 ft 382 kts 238°
2026-05-05 14:57 36.83419 -4.66858 34937 ft 382 kts 238°
2026-05-05 14:58 36.80429 -4.72347 34942 ft 383 kts 238°
2026-05-05 14:58 36.77424 -4.77836 34944 ft 383 kts 238°
2026-05-05 14:59 36.74434 -4.83286 34944 ft 383 kts 238°
2026-05-05 14:59 36.71428 -4.88766 34946 ft 383 kts 238°
2026-05-05 15:00 36.68921 -4.93327 34953 ft 384 kts 238°
2026-05-05 15:00 36.65389 -4.99734 34948 ft 384 kts 237°
2026-05-05 15:01 36.62357 -5.05222 34956 ft 385 kts 237°
2026-05-05 15:01 36.59343 -5.10682 34948 ft 385 kts 237°
2026-05-05 15:02 36.56306 -5.16166 34950 ft 385 kts 237°
2026-05-05 15:02 36.53254 -5.21659 34959 ft 386 kts 237°
2026-05-05 15:03 36.50203 -5.27151 34956 ft 387 kts 237°
2026-05-05 15:03 36.47150 -5.32663 34964 ft 388 kts 237°
2026-05-05 15:04 36.44103 -5.38140 34969 ft 388 kts 237°
2026-05-05 15:04 36.41020 -5.43655 34970 ft 389 kts 237°
2026-05-05 15:05 36.36379 -5.51937 34975 ft 390 kts 237°
2026-05-05 15:06 36.33302 -5.57427 34983 ft 390 kts 237°
2026-05-05 15:06 36.30205 -5.62959 34985 ft 391 kts 237°
2026-05-05 15:07 36.27102 -5.68489 34986 ft 391 kts 237°
2026-05-05 15:07 36.24008 -5.73984 34993 ft 392 kts 237°
2026-05-05 15:08 36.20885 -5.79519 35002 ft 392 kts 237°
2026-05-05 15:08 36.17762 -5.85051 35010 ft 393 kts 237°
2026-05-05 15:09 36.14621 -5.90593 35015 ft 393 kts 237°
2026-05-05 15:09 36.11483 -5.96135 35028 ft 394 kts 237°
2026-05-05 15:10 36.08356 -6.01645 35036 ft 394 kts 237°
2026-05-05 15:10 36.05207 -6.07193 35043 ft 394 kts 237°
2026-05-05 15:11 36.02053 -6.12737 35043 ft 394 kts 236°
2026-05-05 15:11 35.98893 -6.18283 35043 ft 395 kts 236°
2026-05-05 15:12 35.95750 -6.23781 35042 ft 395 kts 236°
2026-05-05 15:12 35.92580 -6.29310 35041 ft 395 kts 236°
2026-05-05 15:13 35.89408 -6.34840 35037 ft 395 kts 236°
2026-05-05 15:13 35.86236 -6.40375 35041 ft 395 kts 236°
2026-05-05 15:14 35.83058 -6.45910 35039 ft 395 kts 236°
2026-05-05 15:14 35.79901 -6.51399 35039 ft 395 kts 236°
2026-05-05 15:15 35.76712 -6.56919 35038 ft 396 kts 236°
2026-05-05 15:15 35.73513 -6.62442 35045 ft 396 kts 236°
2026-05-05 15:16 35.70337 -6.67935 35045 ft 397 kts 236°
2026-05-05 15:16 35.67141 -6.73462 35046 ft 397 kts 236°
2026-05-05 15:17 35.63943 -6.78996 35048 ft 397 kts 236°
2026-05-05 15:17 35.60731 -6.84521 35051 ft 397 kts 236°
2026-05-05 15:18 35.57511 -6.90038 35052 ft 397 kts 236°
2026-05-05 15:18 35.54314 -6.95526 35049 ft 398 kts 235°
2026-05-05 15:19 35.51093 -7.01043 35052 ft 398 kts 235°
2026-05-05 15:19 35.47861 -7.06560 35052 ft 398 kts 235°
2026-05-05 15:20 35.44626 -7.12072 35055 ft 399 kts 235°
2026-05-05 15:20 35.41404 -7.17554 35056 ft 399 kts 235°
2026-05-05 15:21 35.38162 -7.23083 35056 ft 400 kts 235°
2026-05-05 15:21 35.34914 -7.28611 35058 ft 400 kts 235°
2026-05-05 15:22 35.31655 -7.34140 35058 ft 401 kts 235°
2026-05-05 15:22 35.28386 -7.39669 35058 ft 401 kts 235°
2026-05-05 15:23 35.25138 -7.45170 35058 ft 402 kts 235°
2026-05-05 15:23 35.21854 -7.50708 35059 ft 402 kts 235°
2026-05-05 15:24 35.18561 -7.56240 35060 ft 403 kts 235°
2026-05-05 15:24 35.15264 -7.61781 35059 ft 403 kts 235°
2026-05-05 15:25 35.11968 -7.67328 35061 ft 404 kts 235°
2026-05-05 15:25 35.08683 -7.72843 35061 ft 404 kts 235°
2026-05-05 15:26 35.05367 -7.78398 35061 ft 405 kts 235°
2026-05-05 15:26 35.02047 -7.83946 35063 ft 405 kts 235°
2026-05-05 15:27 34.98716 -7.89503 35069 ft 406 kts 235°
2026-05-05 15:27 34.95407 -7.95024 35069 ft 406 kts 235°
2026-05-05 15:28 34.92068 -8.00594 35066 ft 407 kts 234°
2026-05-05 15:28 34.88721 -8.06154 35072 ft 407 kts 234°
2026-05-05 15:29 34.85365 -8.11717 35072 ft 408 kts 234°
2026-05-05 15:29 34.82030 -8.17251 35067 ft 408 kts 235°
2026-05-05 15:30 34.78667 -8.22826 35067 ft 409 kts 234°
2026-05-05 15:30 34.75285 -8.28398 35073 ft 409 kts 234°
2026-05-05 15:31 34.71901 -8.33966 35074 ft 410 kts 234°
2026-05-05 15:31 34.68516 -8.39542 35071 ft 410 kts 234°
2026-05-05 15:32 34.65147 -8.45072 35073 ft 410 kts 234°
2026-05-05 15:32 34.61755 -8.50650 35080 ft 411 kts 234°
2026-05-05 15:33 34.58349 -8.56226 35074 ft 411 kts 234°
2026-05-05 15:33 34.54937 -8.61805 35077 ft 412 kts 234°
2026-05-05 15:34 34.51543 -8.67346 35081 ft 412 kts 234°
2026-05-05 15:34 34.48117 -8.72931 35079 ft 413 kts 234°
2026-05-05 15:35 34.44615 -8.78442 35079 ft 414 kts 228°
2026-05-05 15:35 34.40220 -8.82984 35079 ft 417 kts 220°
2026-05-05 15:36 34.35707 -8.87313 35082 ft 417 kts 220°
2026-05-05 15:36 34.31156 -8.91677 35081 ft 417 kts 220°
2026-05-05 15:37 34.26607 -8.96036 35079 ft 418 kts 220°
2026-05-05 15:37 34.22050 -9.00392 35078 ft 418 kts 220°
2026-05-05 15:38 34.17523 -9.04727 35076 ft 418 kts 220°
2026-05-05 15:38 34.12967 -9.09089 35077 ft 418 kts 220°
2026-05-05 15:39 34.08404 -9.13447 35079 ft 419 kts 220°
2026-05-05 15:39 34.03830 -9.17796 35086 ft 419 kts 220°
2026-05-05 15:40 33.99281 -9.22115 35090 ft 419 kts 220°
2026-05-05 15:40 33.94706 -9.26455 35095 ft 419 kts 220°
2026-05-05 15:41 33.90132 -9.30796 35104 ft 419 kts 220°
2026-05-05 15:41 33.85585 -9.35103 35107 ft 419 kts 220°
2026-05-05 15:42 33.81004 -9.39431 35110 ft 418 kts 220°
2026-05-05 15:42 33.76429 -9.43746 35108 ft 418 kts 220°
2026-05-05 15:43 33.71854 -9.48059 35112 ft 418 kts 220°
2026-05-05 15:43 33.67282 -9.52372 35106 ft 418 kts 220°
2026-05-05 15:44 33.62746 -9.56644 35099 ft 417 kts 220°
2026-05-05 15:44 33.58176 -9.60934 35103 ft 417 kts 220°
2026-05-05 15:45 33.53606 -9.65213 35094 ft 416 kts 220°
2026-05-05 15:45 33.49821 -9.68756 35099 ft 415 kts 220°
2026-05-05 15:46 33.44532 -9.73713 35088 ft 415 kts 220°
2026-05-05 15:46 33.39990 -9.77965 35106 ft 414 kts 220°
2026-05-05 15:47 33.35451 -9.82191 35100 ft 413 kts 220°
2026-05-05 15:47 33.30948 -9.86377 35102 ft 412 kts 221°
2026-05-05 15:48 33.26429 -9.90580 35104 ft 411 kts 221°
2026-05-05 15:48 33.21916 -9.94766 35108 ft 410 kts 221°
2026-05-05 15:49 33.18183 -9.98230 35108 ft 409 kts 221°
2026-05-05 15:49 33.13707 -10.02391 35108 ft 407 kts 221°
2026-05-05 15:50 33.08517 -10.07200 35107 ft 406 kts 221°
2026-05-05 15:50 33.04784 -10.10643 35106 ft 404 kts 221°
2026-05-05 15:51 33.00374 -10.14717 35105 ft 403 kts 221°
2026-05-05 15:51 32.95946 -10.18804 35104 ft 402 kts 221°
2026-05-05 15:52 32.91535 -10.22875 35102 ft 401 kts 221°
2026-05-05 15:52 32.87133 -10.26925 35105 ft 399 kts 221°
2026-05-05 15:53 32.82778 -10.30931 35104 ft 398 kts 222°
2026-05-05 15:53 32.78407 -10.34947 35104 ft 396 kts 222°
2026-05-05 15:54 32.74041 -10.38938 35100 ft 395 kts 222°
2026-05-05 15:54 32.69689 -10.42912 35103 ft 394 kts 222°
2026-05-05 15:55 32.65358 -10.46875 35101 ft 393 kts 222°
2026-05-05 15:55 32.61066 -10.50795 35096 ft 391 kts 222°
2026-05-05 15:56 32.56755 -10.54727 35097 ft 390 kts 222°
2026-05-05 15:56 32.52459 -10.58643 35094 ft 389 kts 222°
2026-05-05 15:57 32.48178 -10.62539 35089 ft 387 kts 222°
2026-05-05 15:57 32.43935 -10.66386 35089 ft 386 kts 222°
2026-05-05 15:58 32.39683 -10.70248 35086 ft 385 kts 223°
2026-05-05 15:58 32.35448 -10.74094 35089 ft 383 kts 223°
2026-05-05 15:59 32.31224 -10.77918 35097 ft 382 kts 223°
2026-05-05 15:59 32.27014 -10.81720 35095 ft 380 kts 223°
2026-05-05 16:00 32.22847 -10.85481 35093 ft 379 kts 223°
2026-05-05 16:00 32.18660 -10.89251 35090 ft 378 kts 223°
2026-05-05 16:01 32.14490 -10.93006 35087 ft 377 kts 223°
2026-05-05 16:01 32.10335 -10.96755 35084 ft 375 kts 223°
2026-05-05 16:02 32.06221 -11.00453 35066 ft 373 kts 223°
2026-05-05 16:02 32.02104 -11.04146 35067 ft 371 kts 223°
2026-05-05 16:03 31.98001 -11.07826 35063 ft 371 kts 223°
2026-05-05 16:03 31.93899 -11.11500 35065 ft 370 kts 223°
2026-05-05 16:04 31.89832 -11.15138 35063 ft 370 kts 223°
2026-05-05 16:04 31.85736 -11.18795 35063 ft 369 kts 223°
2026-05-05 16:05 31.81645 -11.22450 35066 ft 369 kts 223°
2026-05-05 16:05 31.77560 -11.26097 35063 ft 368 kts 223°
2026-05-05 16:06 31.73505 -11.29715 35062 ft 368 kts 223°
2026-05-05 16:06 31.69421 -11.33335 35068 ft 368 kts 223°
2026-05-05 16:07 31.65348 -11.36953 35066 ft 367 kts 224°
2026-05-05 16:07 31.61276 -11.40565 35066 ft 366 kts 224°
2026-05-05 16:08 31.57239 -11.44142 35065 ft 366 kts 224°
2026-05-05 16:08 31.53182 -11.47735 35067 ft 365 kts 224°
2026-05-05 16:09 31.49133 -11.51320 35064 ft 365 kts 224°
2026-05-05 16:09 31.45082 -11.54896 35066 ft 364 kts 224°
2026-05-05 16:10 31.41073 -11.58441 35062 ft 363 kts 224°
2026-05-05 16:10 31.37038 -11.61999 35064 ft 363 kts 224°
2026-05-05 16:11 31.33011 -11.65554 35056 ft 362 kts 224°
2026-05-05 16:12 31.24984 -11.72604 35061 ft 361 kts 224°
2026-05-05 16:13 31.14942 -11.81395 35059 ft 360 kts 224°
2026-05-05 16:13 31.10940 -11.84907 35061 ft 360 kts 224°
2026-05-05 16:14 31.02968 -11.91882 35060 ft 359 kts 224°
2026-05-05 16:15 30.94988 -11.98854 35051 ft 358 kts 224°
2026-05-05 16:16 30.87033 -12.05769 35047 ft 358 kts 224°
2026-05-05 16:17 30.81048 -12.10956 35047 ft 358 kts 224°
2026-05-05 16:18 30.75102 -12.16123 35041 ft 357 kts 224°
2026-05-05 16:19 30.69128 -12.21296 35046 ft 357 kts 224°
2026-05-05 16:19 30.63161 -12.26463 35043 ft 356 kts 224°
2026-05-05 16:20 30.55227 -12.33300 35039 ft 356 kts 224°
2026-05-05 16:22 30.45299 -12.41841 35036 ft 356 kts 224°
2026-05-05 16:23 30.37342 -12.48690 35035 ft 356 kts 224°
2026-05-05 16:23 30.31394 -12.53801 34931 ft 358 kts 224°
2026-05-05 16:24 30.29391 -12.55513 34687 ft 357 kts 223°
2026-05-05 16:24 30.27390 -12.57218 34450 ft 358 kts 223°
2026-05-05 16:24 30.23383 -12.60636 33967 ft 358 kts 223°
2026-05-05 16:25 30.21386 -12.62343 33697 ft 357 kts 223°
2026-05-05 16:25 30.17409 -12.65747 33163 ft 354 kts 223°
2026-05-05 16:25 30.15429 -12.67441 32895 ft 354 kts 223°
2026-05-05 16:26 30.11503 -12.70783 32378 ft 352 kts 223°
2026-05-05 16:26 30.07361 -12.73861 31332 ft 365 kts 218°
2026-05-05 16:27 30.05169 -12.75406 30757 ft 372 kts 218°
2026-05-05 16:27 30.02953 -12.76956 30181 ft 372 kts 218°
2026-05-05 16:27 30.00737 -12.78500 29547 ft 371 kts 218°
2026-05-05 16:27 29.98530 -12.80034 28987 ft 370 kts 218°
2026-05-05 16:28 29.96363 -12.81541 28447 ft 368 kts 218°
2026-05-05 16:28 29.94181 -12.83059 27901 ft 365 kts 218°
2026-05-05 16:28 29.92013 -12.84570 27380 ft 363 kts 218°
2026-05-05 16:28 29.89857 -12.86077 26858 ft 361 kts 218°
2026-05-05 16:29 29.87714 -12.87574 26360 ft 359 kts 217°
2026-05-05 16:29 29.85583 -12.89060 25851 ft 357 kts 217°
2026-05-05 16:29 29.83461 -12.90539 25355 ft 355 kts 217°
2026-05-05 16:29 29.81351 -12.92011 24847 ft 354 kts 217°
2026-05-05 16:30 29.79249 -12.93478 24336 ft 352 kts 217°
2026-05-05 16:30 29.77158 -12.94936 23817 ft 351 kts 217°
2026-05-05 16:30 29.75102 -12.96369 23236 ft 350 kts 217°
2026-05-05 16:30 29.73022 -12.97813 22701 ft 348 kts 217°
2026-05-05 16:31 29.70955 -12.99245 22178 ft 346 kts 217°
2026-05-05 16:31 29.68897 -13.00672 21657 ft 344 kts 217°
2026-05-05 16:31 29.66851 -13.02089 21133 ft 343 kts 216°
2026-05-05 16:31 29.64812 -13.03499 20616 ft 341 kts 216°
2026-05-05 16:32 29.62783 -13.04901 20103 ft 340 kts 216°
2026-05-05 16:32 29.60734 -13.06246 19814 ft 338 kts 215°
2026-05-05 16:32 29.58723 -13.07638 19577 ft 338 kts 215°
2026-05-05 16:32 29.56658 -13.08932 19336 ft 338 kts 213°
2026-05-05 16:33 29.54556 -13.10149 19102 ft 338 kts 212°
2026-05-05 16:33 29.52472 -13.11323 18875 ft 338 kts 211°
2026-05-05 16:33 29.50365 -13.12507 18641 ft 337 kts 211°
2026-05-05 16:33 29.48268 -13.13696 18410 ft 336 kts 212°
2026-05-05 16:34 29.46181 -13.14893 18160 ft 335 kts 212°
2026-05-05 16:34 29.44104 -13.16095 17893 ft 334 kts 212°
2026-05-05 16:34 29.42035 -13.17298 17637 ft 333 kts 212°
2026-05-05 16:34 29.39972 -13.18500 17374 ft 332 kts 212°
2026-05-05 16:35 29.37917 -13.19700 17114 ft 331 kts 212°
2026-05-05 16:35 29.35895 -13.20880 16858 ft 330 kts 212°
2026-05-05 16:35 29.33850 -13.22071 16605 ft 329 kts 212°
2026-05-05 16:35 29.31813 -13.23259 16357 ft 329 kts 212°
2026-05-05 16:36 29.29769 -13.24450 16048 ft 334 kts 212°
2026-05-05 16:36 29.27653 -13.25688 15667 ft 346 kts 212°
2026-05-05 16:36 29.25495 -13.26947 15303 ft 349 kts 212°
2026-05-05 16:36 29.23335 -13.28201 14940 ft 348 kts 211°
2026-05-05 16:37 29.21172 -13.29455 14584 ft 347 kts 211°
2026-05-05 16:37 29.19021 -13.30702 14235 ft 346 kts 211°
2026-05-05 16:37 29.16910 -13.31925 13891 ft 344 kts 211°
2026-05-05 16:37 29.14775 -13.33159 13502 ft 343 kts 211°
2026-05-05 16:38 29.12655 -13.34384 13112 ft 342 kts 211°
2026-05-05 16:38 29.10527 -13.35614 12609 ft 341 kts 211°
2026-05-05 16:38 29.08535 -13.36762 12073 ft 329 kts 211°
2026-05-05 16:38 29.06539 -13.37909 11531 ft 314 kts 211°
2026-05-05 16:39 29.04627 -13.39010 10995 ft 302 kts 211°
2026-05-05 16:39 29.02811 -13.40061 10480 ft 292 kts 211°
2026-05-05 16:39 29.01025 -13.41096 9963 ft 284 kts 211°
2026-05-05 16:39 28.99284 -13.42104 9404 ft 278 kts 211°
2026-05-05 16:40 28.97570 -13.43098 8847 ft 275 kts 211°
2026-05-05 16:40 28.95866 -13.44085 8297 ft 275 kts 211°
2026-05-05 16:40 28.94162 -13.45070 7754 ft 274 kts 210°
2026-05-05 16:40 28.92470 -13.46046 7224 ft 269 kts 210°
2026-05-05 16:41 28.90827 -13.46992 6846 ft 260 kts 210°
2026-05-05 16:41 28.89221 -13.47919 6548 ft 256 kts 210°
2026-05-05 16:41 28.87663 -13.48820 6229 ft 253 kts 210°
2026-05-05 16:41 28.86100 -13.49723 5901 ft 250 kts 210°
2026-05-05 16:42 28.84559 -13.50610 5577 ft 247 kts 210°
2026-05-05 16:42 28.83028 -13.51493 5163 ft 248 kts 210°
2026-05-05 16:42 28.81475 -13.52391 4732 ft 251 kts 210°
2026-05-05 16:42 28.80119 -13.53609 4274 ft 249 kts 236°
2026-05-05 16:43 28.79397 -13.55377 3842 ft 247 kts 257°
2026-05-05 16:43 28.79025 -13.57268 3519 ft 242 kts 268°
2026-05-05 16:43 28.78950 -13.59171 3177 ft 240 kts 272°
2026-05-05 16:43 28.79166 -13.61017 2809 ft 238 kts 287°
2026-05-05 16:44 28.79714 -13.62780 2436 ft 234 kts 303°
2026-05-05 16:44 28.80655 -13.64174 2328 ft 211 kts 320°
2026-05-05 16:44 28.81787 -13.65113 2236 ft 195 kts 335°
2026-05-05 16:44 28.82999 -13.65645 2096 ft 178 kts 349°
2026-05-05 16:45 28.84197 -13.65811 1944 ft 170 kts
2026-05-05 16:45 28.85344 -13.65667 1767 ft 163 kts 14°
2026-05-05 16:45 28.86408 -13.65237 1566 ft 160 kts 26°
2026-05-05 16:45 28.87349 -13.64693 1379 ft 144 kts 27°
2026-05-05 16:46 28.88206 -13.64197 1201 ft 134 kts 28°
2026-05-05 16:46 28.89014 -13.63729 1016 ft 132 kts 30°
2026-05-05 16:46 28.89831 -13.63257 867 ft 130 kts 32°
2026-05-05 16:46 28.90637 -13.62790 709 ft 129 kts 31°
2026-05-05 16:47 28.91432 -13.62329 544 ft 128 kts 31°
2026-05-05 16:47 28.92221 -13.61871 366 ft 126 kts 29°
2026-05-05 16:47 28.93003 -13.61422 204 ft 126 kts 30°
2026-05-05 16:47 28.93784 -13.60965 47 ft 124 kts 29°
2026-05-05 16:48 28.94435 -13.60585 33 ft 73 kts 27°
2026-05-05 16:48 28.94695 -13.60437 38 ft 33 kts 27°
2026-05-05 16:48 28.94905 -13.60313 45 ft 34 kts 26°
2026-05-05 16:48 28.95083 -13.60224 50 ft 23 kts 13°
2026-05-05 16:49 28.95242 -13.60208 49 ft 22 kts 358°
2026-05-05 16:49 28.95332 -13.60262 50 ft 12 kts 301°
2026-05-05 16:49 28.95370 -13.60345 50 ft 11 kts 296°
2026-05-05 16:49 28.95354 -13.60410 50 ft 9 kts 210°
2026-05-05 16:50 28.95309 -13.60438 48 ft 7 kts 207°
2026-05-05 16:50 28.95278 -13.60467 50 ft 5 kts 242°
2026-05-05 16:50 28.95287 -13.60510 47 ft 8 kts 298°
2026-05-05 16:50 28.95298 -13.60533 50 ft 0 kts 298°